SIC0904 LFLL-LIML

Flight info

Callsign SIC0904
Flight time 0h 36m
Altitude 22000
Route RISOR T47 GEMLA/N0410F230 DCT VANAS DCT MEDAM DCT NITAM DCT MOGBO DCT TOP/N0407F210
Aircraft A320/M-SDE1FGIJ1RWYZ/LB1

Departure

Time 2026-04-29 19:37
Airport Lyon Saint-Exupéry Airport (LFLL)

Arrival

Time 2026-04-29 20:13
Airport Milano Linate Airport (LIML)
Time Latitude Longitude Altitude Speed Heading
2026-04-29 19:15 45.72288 5.08146 797 ft 0 kts 250°
2026-04-29 19:28 45.72293 5.08169 797 ft 4 kts 258°
2026-04-29 19:29 45.72293 5.08203 797 ft 2 kts 287°
2026-04-29 19:29 45.72288 5.08234 797 ft 4 kts 274°
2026-04-29 19:29 45.72290 5.08265 797 ft 4 kts 212°
2026-04-29 19:29 45.72298 5.08268 797 ft 0 kts 160°
2026-04-29 19:32 45.72256 5.08299 797 ft 12 kts 131°
2026-04-29 19:32 45.72253 5.08401 799 ft 13 kts 117°
2026-04-29 19:32 45.72157 5.08438 802 ft 14 kts 176°
2026-04-29 19:33 45.72067 5.08449 803 ft 15 kts 175°
2026-04-29 19:33 45.71924 5.08468 802 ft 25 kts 174°
2026-04-29 19:33 45.71742 5.08489 802 ft 25 kts 175°
2026-04-29 19:33 45.71585 5.08507 803 ft 22 kts 176°
2026-04-29 19:34 45.71428 5.08524 808 ft 21 kts 175°
2026-04-29 19:34 45.71287 5.08541 813 ft 17 kts 176°
2026-04-29 19:34 45.71179 5.08558 810 ft 14 kts 167°
2026-04-29 19:34 45.71122 5.08636 817 ft 9 kts 112°
2026-04-29 19:35 45.71105 5.08712 814 ft 7 kts 107°
2026-04-29 19:35 45.71088 5.08805 818 ft 15 kts 104°
2026-04-29 19:35 45.71080 5.08952 821 ft 14 kts 86°
2026-04-29 19:35 45.71112 5.09029 820 ft 8 kts
2026-04-29 19:36 45.71126 5.09027 820 ft 0 kts 355°
2026-04-29 19:36 45.71171 5.09021 819 ft 34 kts 355°
2026-04-29 19:36 45.71672 5.08962 815 ft 108 kts 355°
2026-04-29 19:36 45.72641 5.08847 799 ft 165 kts 356°
2026-04-29 19:37 45.73790 5.08726 1445 ft 165 kts 356°
2026-04-29 19:37 45.74163 5.08687 1692 ft 165 kts 357°
2026-04-29 19:37 45.76092 5.08436 2704 ft 178 kts 356°
2026-04-29 19:37 45.77378 5.08275 3160 ft 193 kts 356°
2026-04-29 19:38 45.78779 5.08099 3569 ft 212 kts 356°
2026-04-29 19:38 45.80341 5.07909 3900 ft 239 kts 356°
2026-04-29 19:38 45.82052 5.07755 4613 ft 249 kts
2026-04-29 19:38 45.83682 5.08499 5489 ft 250 kts 38°
2026-04-29 19:39 45.84698 5.10473 6345 ft 251 kts 75°
2026-04-29 19:39 45.84699 5.12951 7162 ft 254 kts 109°
2026-04-29 19:39 45.83679 5.15003 7932 ft 260 kts 144°
2026-04-29 19:39 45.82031 5.16084 8815 ft 262 kts 163°
2026-04-29 19:40 45.80248 5.16711 9692 ft 267 kts 168°
2026-04-29 19:40 45.78422 5.17281 10522 ft 270 kts 167°
2026-04-29 19:40 45.76591 5.17945 11329 ft 273 kts 165°
2026-04-29 19:40 45.74762 5.18729 12138 ft 277 kts 162°
2026-04-29 19:41 45.72944 5.19681 12937 ft 281 kts 153°
2026-04-29 19:41 45.71322 5.21269 13708 ft 286 kts 136°
2026-04-29 19:41 45.70015 5.23512 14055 ft 306 kts 125°
2026-04-29 19:41 45.68751 5.26110 14261 ft 330 kts 125°
2026-04-29 19:42 45.67400 5.28897 14417 ft 353 kts 125°
2026-04-29 19:42 45.66922 5.29880 14466 ft 360 kts 125°
2026-04-29 19:42 45.64468 5.34896 15279 ft 376 kts 125°
2026-04-29 19:42 45.62955 5.37964 15922 ft 380 kts 125°
2026-04-29 19:43 45.61423 5.41062 16590 ft 384 kts 125°
2026-04-29 19:43 45.60377 5.43177 17022 ft 387 kts 125°
2026-04-29 19:43 45.58816 5.46329 17658 ft 391 kts 125°
2026-04-29 19:43 45.56723 5.50552 18496 ft 396 kts 125°
2026-04-29 19:44 45.55644 5.52728 18869 ft 399 kts 125°
2026-04-29 19:44 45.54264 5.56122 19402 ft 403 kts 111°
2026-04-29 19:44 45.53595 5.60063 19950 ft 407 kts 94°
2026-04-29 19:44 45.53676 5.64110 20500 ft 410 kts 85°
2026-04-29 19:45 45.53888 5.68184 21045 ft 414 kts 84°
2026-04-29 19:45 45.54118 5.72301 21585 ft 418 kts 84°
2026-04-29 19:45 45.54350 5.76398 21956 ft 422 kts 84°
2026-04-29 19:45 45.54583 5.80587 22045 ft 430 kts 84°
2026-04-29 19:46 45.54813 5.84881 22052 ft 438 kts 85°
2026-04-29 19:46 45.55038 5.89231 22052 ft 441 kts 85°
2026-04-29 19:46 45.55259 5.93599 22056 ft 442 kts 85°
2026-04-29 19:46 45.55475 5.97972 22059 ft 442 kts 85°
2026-04-29 19:47 45.55688 6.02335 22050 ft 442 kts 85°
2026-04-29 19:47 45.55901 6.06711 22056 ft 442 kts 85°
2026-04-29 19:47 45.56116 6.11077 22059 ft 441 kts 85°
2026-04-29 19:47 45.56332 6.15440 22063 ft 441 kts 85°
2026-04-29 19:48 45.56546 6.19826 22064 ft 442 kts 85°
2026-04-29 19:48 45.56659 6.22718 22061 ft 442 kts 89°
2026-04-29 19:48 45.55983 6.28479 22068 ft 444 kts 110°
2026-04-29 19:48 45.54536 6.32380 22071 ft 444 kts 125°
2026-04-29 19:49 45.52742 6.35888 22071 ft 444 kts 127°
2026-04-29 19:49 45.50876 6.39472 22088 ft 444 kts 127°
2026-04-29 19:49 45.49052 6.42947 22333 ft 444 kts 127°
2026-04-29 19:49 45.47173 6.46520 22595 ft 447 kts 127°
2026-04-29 19:50 45.45332 6.50027 22855 ft 449 kts 127°
2026-04-29 19:50 45.43463 6.53593 23059 ft 451 kts 127°
2026-04-29 19:50 45.41588 6.57180 23107 ft 451 kts 127°
2026-04-29 19:50 45.39709 6.60773 23117 ft 451 kts 127°
2026-04-29 19:51 45.37828 6.64363 23096 ft 452 kts 127°
2026-04-29 19:51 45.35950 6.67949 23122 ft 452 kts 127°
2026-04-29 19:51 45.34077 6.71527 23118 ft 452 kts 127°
2026-04-29 19:51 45.32197 6.75107 23114 ft 452 kts 127°
2026-04-29 19:52 45.30310 6.78678 23120 ft 452 kts 127°
2026-04-29 19:52 45.28423 6.82240 23129 ft 452 kts 127°
2026-04-29 19:52 45.26532 6.85811 23132 ft 452 kts 127°
2026-04-29 19:52 45.24654 6.89356 23136 ft 451 kts 127°
2026-04-29 19:53 45.22765 6.92927 23141 ft 451 kts 127°
2026-04-29 19:53 45.20912 6.96527 23160 ft 452 kts 122°
2026-04-29 19:53 45.19503 7.00509 23157 ft 452 kts 114°
2026-04-29 19:53 45.18237 7.04573 23163 ft 452 kts 113°
2026-04-29 19:54 45.15726 7.12686 23163 ft 453 kts 113°
2026-04-29 19:54 45.14462 7.16759 23176 ft 453 kts 114°
2026-04-29 19:54 45.13187 7.20856 23181 ft 453 kts 114°
2026-04-29 19:55 45.11913 7.24939 23178 ft 453 kts 114°
2026-04-29 19:55 45.10637 7.29037 23180 ft 453 kts 112°
2026-04-29 19:55 45.09742 7.33300 23190 ft 453 kts 99°
2026-04-29 19:55 45.09223 7.37697 23186 ft 452 kts 98°
2026-04-29 19:56 45.08722 7.42069 23189 ft 452 kts 98°
2026-04-29 19:56 45.08221 7.46483 23179 ft 452 kts 98°
2026-04-29 19:56 45.07722 7.50885 23104 ft 453 kts 98°
2026-04-29 19:56 45.07221 7.55278 23104 ft 453 kts 98°
2026-04-29 19:57 45.06717 7.59675 23104 ft 453 kts 98°
2026-04-29 19:57 45.06384 7.62577 23105 ft 453 kts 98°
2026-04-29 19:57 45.05707 7.68442 23107 ft 453 kts 98°
2026-04-29 19:57 45.05194 7.72800 23104 ft 453 kts 98°
2026-04-29 19:58 45.04677 7.77193 23103 ft 453 kts 98°
2026-04-29 19:58 45.04173 7.81589 23099 ft 453 kts 96°
2026-04-29 19:58 45.03934 7.86019 23089 ft 452 kts 92°
2026-04-29 19:58 45.03764 7.90460 23089 ft 452 kts 91°
2026-04-29 19:59 45.03616 7.94901 23088 ft 452 kts 91°
2026-04-29 19:59 45.03473 7.99343 23079 ft 452 kts 91°
2026-04-29 19:59 45.03327 8.03784 23079 ft 452 kts 91°
2026-04-29 19:59 45.03176 8.08225 23089 ft 452 kts 91°
2026-04-29 20:00 45.03016 8.12650 22867 ft 448 kts 91°
2026-04-29 20:00 45.02849 8.17026 22593 ft 444 kts 92°
2026-04-29 20:00 45.02682 8.21377 22327 ft 442 kts 92°
2026-04-29 20:00 45.02513 8.25702 22066 ft 440 kts 92°
2026-04-29 20:01 45.02345 8.30005 21799 ft 438 kts 92°
2026-04-29 20:01 45.02172 8.34289 21382 ft 432 kts 92°
2026-04-29 20:01 45.02002 8.38494 20764 ft 429 kts 92°
2026-04-29 20:01 45.01834 8.42686 20181 ft 426 kts 92°
2026-04-29 20:02 45.01670 8.46832 19609 ft 422 kts 91°
2026-04-29 20:02 45.01506 8.50962 19052 ft 419 kts 92°
2026-04-29 20:02 45.01339 8.55064 18506 ft 416 kts 92°
2026-04-29 20:02 45.01227 8.57760 18115 ft 414 kts 92°
2026-04-29 20:03 45.01264 8.63130 16882 ft 416 kts 78°
2026-04-29 20:03 45.02187 8.67006 16033 ft 415 kts 62°
2026-04-29 20:03 45.03421 8.70608 15178 ft 402 kts 62°
2026-04-29 20:03 45.04599 8.74146 14105 ft 395 kts 63°
2026-04-29 20:04 45.05722 8.77583 13673 ft 371 kts 63°
2026-04-29 20:04 45.06748 8.80747 13520 ft 342 kts 63°
2026-04-29 20:04 45.07706 8.83696 13277 ft 320 kts 63°
2026-04-29 20:04 45.08619 8.86496 12819 ft 307 kts 63°
2026-04-29 20:05 45.09503 8.89191 12277 ft 301 kts 62°
2026-04-29 20:05 45.10380 8.91860 11655 ft 297 kts 64°
2026-04-29 20:05 45.11251 8.94497 11042 ft 295 kts 62°
2026-04-29 20:05 45.12121 8.97128 10376 ft 298 kts 64°
2026-04-29 20:06 45.13005 8.99800 9771 ft 298 kts 62°
2026-04-29 20:06 45.13873 9.02431 9138 ft 291 kts 63°
2026-04-29 20:06 45.14716 9.05001 8517 ft 286 kts 63°
2026-04-29 20:06 45.15548 9.07534 7918 ft 282 kts 63°
2026-04-29 20:07 45.16363 9.10013 7324 ft 279 kts 64°
2026-04-29 20:07 45.17187 9.12521 6736 ft 276 kts 63°
2026-04-29 20:07 45.17995 9.14988 6148 ft 277 kts 63°
2026-04-29 20:07 45.18784 9.17404 5534 ft 271 kts 65°
2026-04-29 20:08 45.19566 9.19809 4914 ft 265 kts 65°
2026-04-29 20:08 45.20082 9.21406 4486 ft 261 kts 66°
2026-04-29 20:08 45.21041 9.24356 4190 ft 233 kts 68°
2026-04-29 20:08 45.21691 9.26344 4059 ft 212 kts 67°
2026-04-29 20:09 45.22321 9.28181 3936 ft 205 kts 62°
2026-04-29 20:09 45.23385 9.29531 3813 ft 213 kts 28°
2026-04-29 20:09 45.24864 9.29849 3692 ft 222 kts
2026-04-29 20:09 45.26418 9.29673 3569 ft 225 kts 359°
2026-04-29 20:10 45.27964 9.29488 3371 ft 221 kts 360°
2026-04-29 20:10 45.29491 9.29320 3091 ft 220 kts
2026-04-29 20:10 45.31019 9.29156 2803 ft 220 kts
2026-04-29 20:10 45.32537 9.28993 2511 ft 218 kts
2026-04-29 20:11 45.34015 9.28832 2251 ft 206 kts
2026-04-29 20:11 45.35388 9.28680 1953 ft 188 kts
2026-04-29 20:11 45.36626 9.28545 1718 ft 170 kts
2026-04-29 20:11 45.37778 9.28423 1492 ft 162 kts
2026-04-29 20:12 45.38881 9.28307 1281 ft 156 kts
2026-04-29 20:12 45.39935 9.28180 1042 ft 149 kts
2026-04-29 20:12 45.40964 9.28066 855 ft 151 kts
2026-04-29 20:12 45.42007 9.27960 670 ft 151 kts
2026-04-29 20:13 45.43054 9.27843 477 ft 151 kts
2026-04-29 20:13 45.43757 9.27781 370 ft 146 kts
2026-04-29 20:13 45.44740 9.27677 362 ft 52 kts 355°
2026-04-29 20:13 45.44950 9.27658 365 ft 27 kts 356°
2026-04-29 20:14 45.45165 9.27635 362 ft 26 kts 356°
2026-04-29 20:14 45.45275 9.27647 358 ft 14 kts 14°
2026-04-29 20:14 45.45363 9.27698 360 ft 14 kts 25°
2026-04-29 20:14 45.45429 9.27750 362 ft 6 kts 36°
2026-04-29 20:15 45.45446 9.27774 360 ft 0 kts 50°
2026-04-29 20:15 45.45452 9.27785 366 ft 7 kts 50°
2026-04-29 20:16 45.45546 9.27817 362 ft 20 kts
2026-04-29 20:16 45.45680 9.27817 360 ft 19 kts
2026-04-29 20:16 45.45802 9.27822 366 ft 14 kts
2026-04-29 20:16 45.45891 9.27838 363 ft 12 kts 36°
2026-04-29 20:17 45.45907 9.27958 362 ft 14 kts 92°
2026-04-29 20:17 45.45913 9.28025 366 ft 4 kts 42°
2026-04-29 20:17 45.45942 9.28031 362 ft 4 kts
2026-04-29 20:17 45.45967 9.28030 361 ft 1 kts
2026-04-29 20:18 45.45973 9.28030 363 ft 1 kts 360°
2026-04-29 20:18 45.45975 9.28030 363 ft 0 kts 360°